TimeEDT,TemperatureF,Dew PointF,Humidity,Sea Level PressureIn,VisibilityMPH,Wind Direction,Wind SpeedMPH,Gust SpeedMPH,PrecipitationIn,Events,Conditions,WindDirDegrees,DateUTC
12:15 AM,60.8,60.8,100,29.93,2.0,Calm,Calm,-,0.14,Rain,Heavy Rain,0,2013-05-11 04:15:00
12:35 AM,60.8,60.8,100,29.92,1.8,Calm,Calm,-,0.30,Rain,Heavy Rain,0,2013-05-11 04:35:00
12:55 AM,60.8,60.8,100,29.95,1.2,South,3.5,-,0.38,Rain,Heavy Rain,180,2013-05-11 04:55:00
1:15 AM,60.8,60.8,100,29.95,1.8,South,3.5,-,0.13,Rain,Rain,180,2013-05-11 05:15:00
1:35 AM,60.8,60.8,100,29.91,0.8,SE,5.8,-,0.16,,Overcast,130,2013-05-11 05:35:00
1:55 AM,60.8,60.8,100,29.89,1.0,ESE,4.6,-,0.16,,Overcast,120,2013-05-11 05:55:00
2:15 AM,60.8,60.8,100,29.88,0.5,SE,5.8,-,N/A,Fog,Fog,130,2013-05-11 06:15:00
2:55 AM,60.8,60.8,100,29.87,1.5,SE,4.6,-,N/A,,Overcast,130,2013-05-11 06:55:00
3:15 AM,60.8,60.8,100,29.87,1.5,SSE,5.8,-,N/A,Rain,Light Rain,150,2013-05-11 07:15:00
3:35 AM,60.8,60.8,100,29.87,1.5,SSE,6.9,-,N/A,Rain,Light Rain,150,2013-05-11 07:35:00
3:55 AM,60.8,60.8,100,29.86,1.5,SSE,6.9,-,N/A,Rain,Light Rain,160,2013-05-11 07:55:00
4:15 AM,60.8,60.8,100,29.86,6.0,South,4.6,-,N/A,,Overcast,180,2013-05-11 08:15:00
4:35 AM,60.8,60.8,100,29.85,7.0,South,3.5,-,N/A,,Mostly Cloudy,190,2013-05-11 08:35:00
4:55 AM,62.6,62.6,100,29.85,5.0,SSW,4.6,-,N/A,Rain,Light Rain,200,2013-05-11 08:55:00
5:15 AM,62.6,62.6,100,29.85,6.0,Calm,Calm,-,N/A,Rain,Light Rain,0,2013-05-11 09:15:00
5:35 AM,62.6,62.6,100,29.85,8.0,SW,3.5,-,N/A,Rain,Light Rain,230,2013-05-11 09:35:00
5:55 AM,62.6,62.6,100,29.84,7.0,SSW,3.5,-,N/A,,Partly Cloudy,210,2013-05-11 09:55:00
6:15 AM,62.6,62.6,100,29.84,5.0,Calm,Calm,-,N/A,,Partly Cloudy,0,2013-05-11 10:15:00
6:35 AM,60.8,60.8,100,29.85,3.0,Calm,Calm,-,N/A,,Scattered Clouds,0,2013-05-11 10:35:00
6:55 AM,62.6,62.6,100,29.85,6.0,SW,3.5,-,N/A,,Mostly Cloudy,220,2013-05-11 10:55:00
7:15 AM,62.6,62.6,100,29.86,5.0,SW,3.5,-,N/A,,Mostly Cloudy,220,2013-05-11 11:15:00
7:35 AM,62.6,62.6,100,29.85,5.0,South,4.6,-,N/A,,Scattered Clouds,190,2013-05-11 11:35:00
7:55 AM,62.6,62.6,100,29.84,7.0,SSW,4.6,-,N/A,,Mostly Cloudy,200,2013-05-11 11:55:00
8:15 AM,64.4,62.6,94,29.84,8.0,South,4.6,-,N/A,,Partly Cloudy,190,2013-05-11 12:15:00
8:35 AM,64.4,62.6,94,29.84,8.0,South,5.8,-,N/A,,Mostly Cloudy,190,2013-05-11 12:35:00
8:55 AM,64.4,62.6,94,29.83,9.0,South,5.8,-,N/A,,Mostly Cloudy,180,2013-05-11 12:55:00
9:15 AM,64.4,62.6,94,29.83,10.0,South,4.6,-,N/A,,Mostly Cloudy,190,2013-05-11 13:15:00
9:35 AM,66.2,62.6,88,29.83,10.0,SSW,5.8,-,N/A,,Mostly Cloudy,210,2013-05-11 13:35:00
9:55 AM,66.2,64.4,94,29.83,10.0,South,6.9,-,N/A,,Overcast,190,2013-05-11 13:55:00
10:15 AM,66.2,62.6,88,29.83,10.0,SW,4.6,-,N/A,,Overcast,230,2013-05-11 14:15:00
10:35 AM,66.2,62.6,88,29.83,10.0,SSW,5.8,-,N/A,,Overcast,210,2013-05-11 14:35:00
10:55 AM,66.2,62.6,88,29.82,10.0,West,3.5,-,N/A,,Mostly Cloudy,260,2013-05-11 14:55:00
11:15 AM,68.0,62.6,83,29.83,10.0,SW,5.8,-,N/A,,Mostly Cloudy,220,2013-05-11 15:15:00
11:35 AM,69.8,64.4,83,29.83,10.0,SW,5.8,-,N/A,,Scattered Clouds,220,2013-05-11 15:35:00
11:55 AM,69.8,62.6,78,29.82,10.0,West,4.6,-,N/A,,Scattered Clouds,260,2013-05-11 15:55:00
12:15 PM,69.8,62.6,78,29.81,9.0,South,4.6,-,N/A,,Scattered Clouds,190,2013-05-11 16:15:00
12:35 PM,69.8,64.4,83,29.80,10.0,SSW,3.5,-,N/A,,Scattered Clouds,210,2013-05-11 16:35:00
12:55 PM,69.8,62.6,78,29.80,9.0,SW,4.6,-,N/A,Rain,Light Rain,220,2013-05-11 16:55:00
1:15 PM,69.8,64.4,83,29.79,5.0,South,3.5,-,0.01,,Light Drizzle,180,2013-05-11 17:15:00
1:35 PM,69.8,64.4,83,29.79,8.0,SW,3.5,-,0.01,,Light Drizzle,220,2013-05-11 17:35:00
1:55 PM,69.8,64.4,83,29.78,10.0,SW,6.9,-,0.01,,Scattered Clouds,220,2013-05-11 17:55:00
2:15 PM,68.0,64.4,88,29.79,5.0,West,11.5,-,0.01,Rain,Rain,280,2013-05-11 18:15:00
2:35 PM,64.4,62.6,94,29.79,0.8,WNW,10.4,-,0.48,Rain,Heavy Rain,290,2013-05-11 18:35:00
2:55 PM,66.2,64.4,94,29.77,9.0,West,3.5,-,0.50,,Mostly Cloudy,260,2013-05-11 18:55:00
3:15 PM,69.8,66.2,88,29.77,10.0,SSW,3.5,-,N/A,,Clear,200,2013-05-11 19:15:00
3:35 PM,71.6,64.4,78,29.76,10.0,WSW,6.9,-,N/A,,Clear,250,2013-05-11 19:35:00
3:55 PM,73.4,62.6,69,29.75,10.0,WSW,5.8,-,N/A,,Clear,250,2013-05-11 19:55:00
4:15 PM,71.6,60.8,69,29.75,10.0,WSW,3.5,-,N/A,,Clear,250,2013-05-11 20:15:00
4:35 PM,71.6,60.8,69,29.75,10.0,WSW,4.6,-,N/A,,Partly Cloudy,240,2013-05-11 20:35:00
4:55 PM,69.8,60.8,73,29.75,10.0,SW,3.5,-,N/A,,Clear,230,2013-05-11 20:55:00
5:15 PM,69.8,60.8,73,29.76,10.0,West,4.6,-,N/A,,Clear,280,2013-05-11 21:15:00
5:35 PM,69.8,62.6,78,29.76,10.0,Calm,Calm,-,N/A,,Drizzle,0,2013-05-11 21:35:00
5:55 PM,68.0,62.6,83,29.76,10.0,WSW,3.5,-,0.01,,Drizzle,250,2013-05-11 21:55:00
6:15 PM,68.0,62.6,83,29.76,7.0,WSW,5.8,-,0.02,Rain,Light Rain,250,2013-05-11 22:15:00
6:35 PM,68.0,64.4,88,29.76,10.0,SW,3.5,-,0.02,,Scattered Clouds,230,2013-05-11 22:35:00
6:55 PM,68.0,64.4,88,29.76,10.0,WSW,3.5,-,0.02,,Scattered Clouds,240,2013-05-11 22:55:00
7:15 PM,66.2,62.6,88,29.76,10.0,West,4.6,-,N/A,,Scattered Clouds,270,2013-05-11 23:15:00
7:35 PM,66.2,62.6,88,29.76,10.0,NNW,8.1,-,N/A,,Scattered Clouds,330,2013-05-11 23:35:00
7:55 PM,64.4,62.6,94,29.77,10.0,WNW,5.8,-,N/A,,Mostly Cloudy,300,2013-05-11 23:55:00
8:15 PM,64.4,62.6,94,29.77,10.0,WNW,3.5,-,N/A,,Mostly Cloudy,290,2013-05-12 00:15:00
8:35 PM,62.6,62.6,100,29.77,10.0,North,3.5,-,N/A,,Mostly Cloudy,350,2013-05-12 00:35:00
8:55 PM,62.6,60.8,94,29.77,10.0,NW,3.5,-,N/A,,Mostly Cloudy,320,2013-05-12 00:55:00
9:15 PM,62.6,60.8,94,29.77,10.0,NNW,4.6,-,N/A,,Scattered Clouds,330,2013-05-12 01:15:00
9:35 PM,62.6,60.8,94,29.77,10.0,Calm,Calm,-,N/A,,Partly Cloudy,0,2013-05-12 01:35:00
9:55 PM,60.8,60.8,100,29.77,10.0,NW,3.5,-,N/A,,Clear,310,2013-05-12 01:55:00
10:15 PM,62.6,60.8,94,29.78,10.0,WNW,6.9,-,N/A,,Partly Cloudy,290,2013-05-12 02:15:00
10:35 PM,62.6,60.8,94,29.79,10.0,SW,4.6,-,N/A,,Scattered Clouds,220,2013-05-12 02:35:00
10:55 PM,62.6,60.8,94,29.79,10.0,WNW,4.6,-,N/A,,Overcast,300,2013-05-12 02:55:00
11:15 PM,62.6,60.8,94,29.78,9.0,NW,6.9,-,N/A,,Mostly Cloudy,310,2013-05-12 03:15:00
11:35 PM,62.6,60.8,94,29.78,10.0,NNW,9.2,-,N/A,,Mostly Cloudy,330,2013-05-12 03:35:00
11:55 PM,62.6,57.2,82,29.78,10.0,NW,9.2,-,N/A,,Mostly Cloudy,320,2013-05-12 03:55:00